User: anonymous   Login
Location: Huesca
(42.1318°N, 0.4078°W)
Time: 11:09:03
(UTC+02:00)
Language:

Transit 2A - Orbit

View from above orbital plane
View from above orbital plane
View from above satellite
View from above satellite

Ground track
Ground track

The orbit data is extracted from the following two-line orbital elements,

1 00045U 60007A   24196.93814096  .00000343  00000-0  10934-3 0  9994
2 00045  66.6942  56.3225 0257919 310.5389  47.3502 14.34793423279255
Epoch (UTC): 14 July 2024 22:30:55
Eccentricity: 0.0257919
inclination: 66.6942°
perigee height: 591 km
apogee height: 960 km
right ascension of ascending node: 56.3225°
argument of perigee: 310.5389°
revolutions per day: 14.34793423
mean anomaly at epoch: 47.3502°
orbit number at epoch: 27925

The dashed part of the orbit path shows where the satellite is in the earth's shadow,  

DLR